Date String (YYYY-MM-DD hh:mm:ss) UTC,Instrument flags,Ambient pressure (hPa),Sample flow (lpm),Bypass flow (lpm),Sample temperature (°C),Ambient temperature (°C),ASC tube jacket temperature (°C),LED temperature (°C),Box temperature (°C),Sample RH (%),Span deviation,Mass concentration (μg/m³),Mass concentration (μg/m³),Mass concentration (μg/m³)
DateTimeUTC,F1_M11,P_M11,Q1_M11,Q2_M11,T1_M11,T2_M11,T3_M11,T4_M11,T5_M11,U1_M11,ZSPAN_M11,X0_M11,X2_M11,X1_M11
2021-11-21 20:00:00,,0833.5,5.01,0.00,25.3,24.7,00.0,34.2,27.2,10.0,0000.0,0006.83,0002.94,0002.40
2021-11-21 20:01:00,,0833.5,4.99,0.00,25.3,24.7,00.0,34.2,27.2,10.0,0000.0,0007.49,0002.91,0002.40
2021-11-21 20:02:00,,0833.5,5.01,0.00,25.4,24.7,00.0,34.2,27.2,09.9,0000.0,0007.67,0002.88,0002.40
2021-11-21 20:03:00,,0833.5,5.01,0.00,25.4,24.7,00.0,34.2,27.2,09.9,0000.0,0007.65,0002.87,0002.38
2021-11-21 20:04:00,,0833.5,4.99,0.00,25.4,24.8,00.0,34.2,27.3,10.0,0000.0,0007.70,0002.85,0002.36
2021-11-21 20:05:00,,0833.5,5.00,0.00,25.4,24.8,00.0,34.2,27.3,09.8,0000.0,0007.73,0002.79,0002.34
2021-11-21 20:06:00,,0833.5,5.00,0.00,25.5,24.8,00.0,34.3,27.4,09.7,0000.0,0007.69,0002.75,0002.32
2021-11-21 20:07:00,,0833.5,5.01,0.00,25.5,24.8,00.0,34.3,27.3,09.7,0000.0,0007.64,0002.73,0002.29
2021-11-21 20:08:00,,0833.5,5.00,0.00,25.5,24.8,00.0,34.3,27.3,09.7,0000.0,0007.25,0002.69,0002.25
2021-11-21 20:09:00,,0833.5,5.01,0.00,25.5,24.8,00.0,34.3,27.3,09.7,0000.0,0006.39,0002.65,0002.22
2021-11-21 20:10:00,,0833.5,5.01,0.00,25.5,24.9,00.0,34.3,27.4,09.7,0000.0,0007.11,0002.59,0002.19
2021-11-21 20:11:00,,0833.4,4.99,0.00,25.5,24.9,00.0,34.3,27.4,09.7,0000.0,0007.15,0002.53,0002.17
2021-11-21 20:12:00,,0833.4,5.01,0.00,25.5,24.9,00.0,34.4,27.4,09.7,0000.0,0006.37,0002.56,0002.15
2021-11-21 20:13:00,,0833.4,4.99,0.00,25.6,24.9,00.0,34.4,27.4,09.6,0000.0,0006.09,0002.57,0002.14
2021-11-21 20:14:00,,0833.2,5.01,0.00,25.6,24.9,00.0,34.4,27.5,09.6,0000.0,0006.28,0002.54,0002.14
2021-11-21 20:15:00,,0833.3,5.00,0.00,25.6,24.9,00.0,34.4,27.5,09.6,0000.0,0006.22,0002.56,0002.16
2021-11-21 20:16:00,,0833.2,4.99,0.00,25.6,25.0,00.0,34.4,27.5,09.6,0000.0,0006.01,0002.56,0002.16
2021-11-21 20:17:00,,0833.2,5.01,0.00,25.6,25.0,00.0,34.5,27.5,09.6,0000.0,0005.92,0002.53,0002.16
2021-11-21 20:18:00,,0833.2,5.00,0.00,25.7,25.0,00.0,34.5,27.5,09.5,0000.0,0005.89,0002.53,0002.16
2021-11-21 20:19:00,,0833.1,5.00,0.00,25.7,25.1,00.0,34.5,27.6,09.5,0000.0,0006.21,0002.60,0002.17
2021-11-21 20:20:00,,0833.2,4.99,0.00,25.7,25.1,00.0,34.5,27.6,09.6,0000.0,0006.84,0002.64,0002.17
2021-11-21 20:21:00,,0833.2,5.01,0.00,25.7,25.1,00.0,34.5,27.6,09.7,0000.0,0006.62,0002.66,0002.16
2021-11-21 20:22:00,,0833.2,4.99,0.00,25.7,25.1,00.0,34.6,27.7,09.7,0000.0,0006.52,0002.67,0002.18
2021-11-21 20:23:00,,0833.2,5.00,0.00,25.8,25.1,00.0,34.6,27.7,09.6,0000.0,0006.50,0002.69,0002.20
2021-11-21 20:24:00,,0833.2,5.00,0.00,25.8,25.1,00.0,34.6,27.7,09.6,0000.0,0006.29,0002.67,0002.21
2021-11-21 20:25:00,,0833.2,5.01,0.00,25.8,25.2,00.0,34.6,27.7,09.5,0000.0,0006.07,0002.69,0002.23
2021-11-21 20:26:00,,0833.2,4.98,0.00,25.8,25.2,00.0,34.6,27.7,09.5,0000.0,0006.06,0002.69,0002.24
2021-11-21 20:27:00,,0833.1,5.01,0.00,25.8,25.2,00.0,34.7,27.7,09.4,0000.0,0006.03,0002.69,0002.25
2021-11-21 20:28:00,,0833.1,5.00,0.00,25.8,25.2,00.0,34.7,27.7,09.5,0000.0,0006.03,0002.71,0002.26
2021-11-21 20:29:00,,0833.1,5.00,0.00,25.9,25.2,00.0,34.7,27.8,09.6,0000.0,0006.05,0002.71,0002.27
2021-11-21 20:30:00,,0833.2,4.99,0.00,25.9,25.3,00.0,34.7,27.8,09.5,0000.0,0005.91,0002.66,0002.27
2021-11-21 20:31:00,,0833.2,5.00,0.00,25.9,25.3,00.0,34.7,27.8,09.5,0000.0,0005.47,0002.64,0002.29
2021-11-21 20:32:00,,0833.2,4.99,0.00,26.0,25.3,00.0,34.8,27.9,09.5,0000.0,0004.34,0002.66,0002.31
2021-11-21 20:33:00,,0833.1,4.99,0.00,26.0,25.3,00.0,34.8,27.9,09.5,0000.0,0003.95,0002.69,0002.31
2021-11-21 20:34:00,,0833.1,5.01,0.00,26.0,25.3,00.0,34.8,27.9,09.5,0000.0,0003.94,0002.68,0002.29
2021-11-21 20:35:00,,0833.1,5.01,0.00,26.0,25.4,00.0,34.8,27.9,09.5,0000.0,0003.91,0002.67,0002.28
2021-11-21 20:36:00,,0833.1,4.99,0.00,26.0,25.4,00.0,34.8,27.9,09.5,0000.0,0003.95,0002.69,0002.27
2021-11-21 20:37:00,,0833.1,5.01,0.00,26.1,25.4,00.0,34.9,27.9,09.5,0000.0,0003.99,0002.69,0002.24
2021-11-21 20:38:00,,0833.1,5.00,0.00,26.1,25.5,00.0,34.9,28.0,09.5,0000.0,0004.44,0002.67,0002.24
2021-11-21 20:39:00,,0833.1,5.01,0.00,26.1,25.5,00.0,34.9,28.0,09.5,0000.0,0004.52,0002.66,0002.23
2021-11-21 20:40:00,,0833.1,4.99,0.00,26.1,25.5,00.0,34.9,28.0,09.5,0000.0,0004.48,0002.65,0002.21
2021-11-21 20:41:00,,0833.0,5.01,0.00,26.2,25.5,00.0,35.0,28.1,09.4,0000.0,0004.99,0002.63,0002.20
2021-11-21 20:42:00,,0833.1,5.00,0.00,26.2,25.5,00.0,35.0,28.1,09.4,0000.0,0005.41,0002.64,0002.19
2021-11-21 20:43:00,,0833.1,5.02,0.00,26.2,25.6,00.0,35.0,28.1,09.3,0000.0,0005.47,0002.63,0002.17
2021-11-21 20:44:00,,0833.1,5.00,0.00,26.2,25.6,00.0,35.0,28.2,09.3,0000.0,0005.75,0002.62,0002.15
2021-11-21 20:45:00,,0833.0,4.99,0.00,26.3,25.6,00.0,35.0,28.2,09.3,0000.0,0005.87,0002.58,0002.14
2021-11-21 20:46:00,,0833.0,5.01,0.00,26.3,25.6,00.0,35.1,28.2,09.3,0000.0,0006.03,0002.58,0002.11
2021-11-21 20:47:00,,0832.9,4.99,0.00,26.3,25.6,00.0,35.1,28.2,09.2,0000.0,0006.04,0002.58,0002.10
2021-11-21 20:48:00,,0832.9,5.01,0.00,26.3,25.6,00.0,35.1,28.2,09.3,0000.0,0005.87,0002.52,0002.08
2021-11-21 20:49:00,,0833.0,4.99,0.00,26.3,25.6,00.0,35.1,28.2,09.3,0000.0,0005.38,0002.51,0002.06
2021-11-21 20:50:00,,0833.0,5.01,0.00,26.3,25.6,00.0,35.1,28.2,09.2,0000.0,0005.47,0002.49,0002.02
2021-11-21 20:51:00,,0833.0,4.99,0.00,26.3,25.6,00.0,35.2,28.2,09.1,0000.0,0005.73,0002.48,0002.01
2021-11-21 20:52:00,,0833.0,4.99,0.00,26.3,25.7,00.0,35.2,28.2,09.1,0000.0,0005.22,0002.46,0001.99
2021-11-21 20:53:00,,0832.9,5.00,0.00,26.4,25.7,00.0,35.2,28.3,09.1,0000.0,0004.53,0002.44,0001.96
2021-11-21 20:54:00,,0832.8,5.01,0.00,26.4,25.7,00.0,35.2,28.3,09.1,0000.0,0004.37,0002.39,0001.94
2021-11-21 20:55:00,,0832.9,5.01,0.00,26.4,25.7,00.0,35.2,28.2,09.1,0000.0,0004.11,0002.34,0001.93
2021-11-21 20:56:00,,0832.9,4.99,0.00,26.4,25.7,00.0,35.2,28.3,09.1,0000.0,0004.40,0002.31,0001.92
2021-11-21 20:57:00,,0833.0,5.02,0.00,26.4,25.7,00.0,35.3,28.3,09.0,0000.0,0004.62,0002.27,0001.91
2021-11-21 20:58:00,,0833.1,5.00,0.00,26.4,25.8,00.0,35.3,28.3,09.0,0000.0,0004.58,0002.24,0001.90
2021-11-21 20:59:00,,0833.0,5.00,0.00,26.4,25.8,00.0,35.3,28.3,09.0,0000.0,0005.49,0002.25,0001.88
